Location: Hard
(49.9417°N, 12.0858°E)
Time: 17:29:04
(UTC+00:00)

Cosmos 1953 Rocket - Pass Details

Date: 07 June 2020
Orbit: 604 x 635 km, 82.5° (Epoch: 09 July)

Event Time Altitude Azimuth Distance (km) Brightness Sun altitude
Exits shadow 00:33:32 26° 195° (SSW) 1,240 4.5 -15.0°
Maximum altitude 00:36:01 81° 279° (W) 635 3.5 -14.8°
Drops below altitude 10° 00:40:26 10° 8° (N) 1,990 7.5 -14.6°
Sets 00:42:40 0° 10° (N) 2,895 8.7 -14.5°
